Time,TemperatureF,DewpointF,PressureIn,WindDirection,WindDirectionDegrees,WindSpeedMPH,WindSpeedGustMPH,Humidity,HourlyPrecipIn,Conditions,Clouds,dailyrainin,SoftwareType,DateUTC
2014-08-29 00:01:00,76.8,72.3,30.05,SE,131,0.0,0.0,86,0.00,,FEW250,0.00,VWS V15.00,2014-08-29 04:01:00,
2014-08-29 00:02:00,76.8,72.3,30.05,SE,133,0.0,0.0,86,0.00,,FEW250,0.00,VWS V15.00,2014-08-29 04:02:00,
2014-08-29 00:03:00,76.8,72.3,30.05,SE,133,0.0,0.0,86,0.00,,FEW250,0.00,VWS V15.00,2014-08-29 04:03:00,
2014-08-29 00:08:00,76.8,72.3,30.05,SE,133,0.0,0.0,86,0.00,,FEW250,0.00,VWS V15.00,2014-08-29 04:08:00,
2014-08-29 00:14:00,76.8,72.6,30.05,SE,133,0.0,0.0,87,0.00,,FEW250,0.00,VWS V15.00,2014-08-29 04:14:00,
2014-08-29 00:19:00,76.7,72.5,30.05,SE,134,0.0,0.0,87,0.00,,FEW250,0.00,VWS V15.00,2014-08-29 04:19:00,
2014-08-29 00:24:00,76.7,72.9,30.05,SE,133,0.0,0.0,88,0.00,,FEW250,0.00,VWS V15.00,2014-08-29 04:24:00,
2014-08-29 00:29:00,76.7,72.9,30.05,SE,133,0.0,0.0,88,0.00,,FEW250,0.00,VWS V15.00,2014-08-29 04:29:00,
2014-08-29 00:34:00,76.7,72.9,30.05,SE,133,0.0,0.0,88,0.00,,FEW250,0.00,VWS V15.00,2014-08-29 04:34:00,
2014-08-29 00:39:00,76.7,72.9,30.05,SE,133,0.0,0.0,88,0.00,,FEW250,0.00,VWS V15.00,2014-08-29 04:39:00,
2014-08-29 00:44:00,76.7,72.9,30.05,SE,133,0.0,0.0,88,0.00,,SCT250,0.00,VWS V15.00,2014-08-29 04:44:00,
2014-08-29 00:49:00,76.7,72.9,30.05,SE,133,0.0,0.0,88,0.00,,SCT250,0.00,VWS V15.00,2014-08-29 04:49:00,
2014-08-29 00:55:00,76.7,72.9,30.05,SE,133,0.0,0.0,88,0.00,,SCT250,0.00,VWS V15.00,2014-08-29 04:55:00,
2014-08-29 01:00:00,76.7,72.9,30.05,SE,134,0.0,0.0,88,0.00,,SCT250,0.00,VWS V15.00,2014-08-29 05:00:00,
2014-08-29 01:05:00,76.8,73.0,30.05,SE,134,0.0,0.0,88,0.00,,SCT250,0.00,VWS V15.00,2014-08-29 05:05:00,
2014-08-29 01:10:00,76.8,73.0,30.05,SE,134,0.0,0.0,88,0.00,,SCT250,0.00,VWS V15.00,2014-08-29 05:10:00,
2014-08-29 01:15:00,76.8,73.0,30.05,SE,131,0.0,0.0,88,0.00,,SCT250,0.00,VWS V15.00,2014-08-29 05:15:00,
2014-08-29 01:20:00,76.8,73.0,30.05,SE,134,0.0,0.0,88,0.00,,SCT250,0.00,VWS V15.00,2014-08-29 05:20:00,
2014-08-29 01:25:00,76.8,73.0,30.05,SE,131,0.0,0.0,88,0.00,,SCT250,0.00,VWS V15.00,2014-08-29 05:25:00,
2014-08-29 01:31:00,76.8,73.0,30.05,SE,131,0.0,0.0,88,0.00,,SCT250,0.00,VWS V15.00,2014-08-29 05:31:00,
2014-08-29 01:36:00,76.7,72.9,30.05,SE,133,0.0,0.0,88,0.00,,SCT250,0.00,VWS V15.00,2014-08-29 05:36:00,
2014-08-29 01:41:00,76.7,72.9,30.05,SE,131,0.0,0.0,88,0.00,,BKN250,0.00,VWS V15.00,2014-08-29 05:41:00,
2014-08-29 01:46:00,76.7,73.2,30.06,SE,131,0.0,0.0,89,0.00,,BKN250,0.00,VWS V15.00,2014-08-29 05:46:00,
2014-08-29 01:51:00,76.7,73.2,30.06,SE,133,0.0,0.0,89,0.00,,BKN250,0.00,VWS V15.00,2014-08-29 05:51:00,
2014-08-29 01:56:00,76.8,73.3,30.06,SE,133,0.0,0.0,89,0.00,,BKN250,0.00,VWS V15.00,2014-08-29 05:56:00,
2014-08-29 02:01:00,76.8,73.3,30.06,SE,133,0.0,0.0,89,0.00,,BKN250,0.00,VWS V15.00,2014-08-29 06:01:00,
2014-08-29 02:07:00,76.7,73.2,30.06,SE,133,0.0,0.0,89,0.00,,BKN250,0.00,VWS V15.00,2014-08-29 06:07:00,
2014-08-29 02:12:00,76.7,73.2,30.06,SE,133,0.0,0.0,89,0.00,,BKN250,0.00,VWS V15.00,2014-08-29 06:12:00,
2014-08-29 02:17:00,76.8,73.3,30.07,SE,133,0.0,0.0,89,0.00,,BKN250,0.00,VWS V15.00,2014-08-29 06:17:00,
2014-08-29 02:22:00,76.7,73.2,30.07,SE,133,0.0,0.0,89,0.00,,BKN250,0.00,VWS V15.00,2014-08-29 06:22:00,
2014-08-29 02:27:00,76.7,73.2,30.07,SE,133,0.0,0.0,89,0.00,,BKN250,0.00,VWS V15.00,2014-08-29 06:27:00,
2014-08-29 02:32:00,76.7,72.9,30.06,ENE,72,0.0,0.0,88,0.00,,BKN250,0.00,VWS V15.00,2014-08-29 06:32:00,
2014-08-29 02:37:00,76.7,72.5,30.06,NNE,21,0.0,2.0,87,0.00,,BKN250,0.00,VWS V15.00,2014-08-29 06:37:00,
2014-08-29 02:42:00,76.7,72.2,30.06,NNE,27,0.0,4.0,86,0.00,,BKN090,0.00,VWS V15.00,2014-08-29 06:42:00,
2014-08-29 02:47:00,76.7,71.9,30.06,NNE,28,0.0,4.0,85,0.00,,BKN090,0.00,VWS V15.00,2014-08-29 06:47:00,
2014-08-29 02:53:00,76.7,71.5,30.06,NNE,27,0.0,4.0,84,0.00,,BKN090,0.00,VWS V15.00,2014-08-29 06:53:00,
2014-08-29 02:58:00,76.7,71.2,30.06,NNE,28,0.0,4.0,83,0.00,,BKN090,0.00,VWS V15.00,2014-08-29 06:58:00,
2014-08-29 03:03:00,76.7,70.8,30.06,NNE,25,0.0,2.0,82,0.00,,BKN090,0.00,VWS V15.00,2014-08-29 07:03:00,
2014-08-29 03:08:00,76.7,70.4,30.06,NNE,25,0.0,2.0,81,0.00,,BKN090,0.00,VWS V15.00,2014-08-29 07:08:00,
2014-08-29 03:13:00,76.8,70.5,30.06,NNE,25,0.0,2.0,81,0.00,,BKN090,0.00,VWS V15.00,2014-08-29 07:13:00,
2014-08-29 03:18:00,76.7,70.1,30.07,NNE,28,0.0,2.0,80,0.00,,BKN090,0.00,VWS V15.00,2014-08-29 07:18:00,
2014-08-29 03:23:00,76.7,69.7,30.07,NNE,25,0.0,2.0,79,0.00,,BKN090,0.00,VWS V15.00,2014-08-29 07:23:00,
2014-08-29 03:28:00,76.7,69.3,30.07,NNE,25,0.0,2.0,78,0.00,,BKN090,0.00,VWS V15.00,2014-08-29 07:28:00,
2014-08-29 03:33:00,76.7,69.3,30.06,NNE,21,0.0,6.0,78,0.00,,BKN090,0.00,VWS V15.00,2014-08-29 07:33:00,
2014-08-29 03:38:00,76.7,69.3,30.06,NNE,16,0.0,6.0,78,0.00,,BKN090,0.00,VWS V15.00,2014-08-29 07:38:00,
2014-08-29 03:44:00,76.7,68.9,30.06,NE,49,2.0,7.0,77,0.00,,OVC060,0.00,VWS V15.00,2014-08-29 07:44:00,
2014-08-29 03:49:00,76.7,69.3,30.06,NNE,23,0.0,7.0,78,0.00,,OVC060,0.00,VWS V15.00,2014-08-29 07:49:00,
2014-08-29 03:54:00,76.7,70.1,30.06,North,10,0.0,7.0,80,0.00,,OVC060,0.00,VWS V15.00,2014-08-29 07:54:00,
2014-08-29 03:59:00,76.7,70.4,30.06,North,11,0.0,7.0,81,0.00,,OVC060,0.00,VWS V15.00,2014-08-29 07:59:00,
2014-08-29 04:04:00,76.8,71.6,30.07,NNE,17,0.0,4.0,84,0.00,,OVC060,0.00,VWS V15.00,2014-08-29 08:04:00,
2014-08-29 04:09:00,76.7,72.5,30.07,North,8,0.0,4.0,87,0.00,,OVC060,0.00,VWS V15.00,2014-08-29 08:09:00,
2014-08-29 04:14:00,76.5,72.7,30.07,NNE,20,4.0,10.0,88,0.00,,OVC060,0.00,VWS V15.00,2014-08-29 08:14:00,
2014-08-29 04:19:00,76.3,72.5,30.07,ENE,65,0.0,10.0,88,0.00,,OVC060,0.00,VWS V15.00,2014-08-29 08:19:00,
2014-08-29 04:24:00,76.1,72.3,30.07,East,79,2.0,10.0,88,0.00,,OVC060,0.00,VWS V15.00,2014-08-29 08:24:00,
2014-08-29 04:29:00,76.0,72.5,30.08,North,0,0.0,10.0,89,0.00,,OVC060,0.00,VWS V15.00,2014-08-29 08:29:00,
2014-08-29 04:35:00,75.8,72.3,30.08,North,6,0.0,10.0,89,0.00,,OVC060,0.00,VWS V15.00,2014-08-29 08:35:00,
2014-08-29 04:40:00,75.6,72.5,30.08,NE,48,0.0,10.0,90,0.00,,OVC060,0.00,VWS V15.00,2014-08-29 08:40:00,
2014-08-29 04:45:00,75.3,72.2,30.08,NE,44,6.0,10.0,90,0.00,,OVC090,0.00,VWS V15.00,2014-08-29 08:45:00,
2014-08-29 04:50:00,75.1,72.3,30.08,NE,51,0.0,10.0,91,0.00,,OVC090,0.00,VWS V15.00,2014-08-29 08:50:00,
2014-08-29 04:55:00,74.9,72.1,30.08,NE,35,0.0,10.0,91,0.00,,OVC090,0.00,VWS V15.00,2014-08-29 08:55:00,
2014-08-29 05:00:00,74.7,71.9,30.08,NE,35,0.0,10.0,91,0.00,,OVC090,0.00,VWS V15.00,2014-08-29 09:00:00,
2014-08-29 05:05:00,74.6,71.8,30.08,NE,38,0.0,4.0,91,0.00,,OVC090,0.00,VWS V15.00,2014-08-29 09:05:00,
2014-08-29 05:10:00,74.4,71.3,30.08,NE,37,0.0,4.0,90,0.00,,OVC090,0.00,VWS V15.00,2014-08-29 09:10:00,
2014-08-29 05:15:00,74.4,71.3,30.08,NE,34,0.0,4.0,90,0.00,,OVC090,0.00,VWS V15.00,2014-08-29 09:15:00,
2014-08-29 05:20:00,74.2,70.8,30.08,NE,40,0.0,4.0,89,0.00,,OVC090,0.00,VWS V15.00,2014-08-29 09:20:00,
2014-08-29 05:25:00,74.0,69.9,30.08,NE,49,0.0,4.0,87,0.00,,OVC090,0.00,VWS V15.00,2014-08-29 09:25:00,
2014-08-29 05:30:00,73.9,70.1,30.09,NE,40,0.0,4.0,88,0.00,,OVC090,0.00,VWS V15.00,2014-08-29 09:30:00,
2014-08-29 05:36:00,73.9,70.1,30.09,East,83,0.0,4.0,88,0.00,,OVC090,0.00,VWS V15.00,2014-08-29 09:36:00,
2014-08-29 05:41:00,73.7,69.6,30.09,East,80,0.0,4.0,87,0.00,,-RA,0.00,VWS V15.00,2014-08-29 09:41:00,
2014-08-29 05:46:00,73.5,68.7,30.09,East,80,0.0,4.0,85,0.00,,-RA,0.00,VWS V15.00,2014-08-29 09:46:00,
2014-08-29 05:51:00,73.5,68.7,30.09,East,79,0.0,4.0,85,0.00,,-RA,0.00,VWS V15.00,2014-08-29 09:51:00,
2014-08-29 05:56:00,73.3,67.8,30.09,ENE,76,0.0,4.0,83,0.00,,-RA,0.00,VWS V15.00,2014-08-29 09:56:00,
2014-08-29 06:01:00,73.3,67.5,30.09,NE,45,0.0,0.0,82,0.00,,-RA,0.00,VWS V15.00,2014-08-29 10:01:00,
2014-08-29 06:06:00,73.3,67.5,30.09,NE,41,0.0,0.0,82,0.00,,-RA,0.00,VWS V15.00,2014-08-29 10:06:00,
2014-08-29 06:11:00,73.3,67.5,30.09,NE,45,0.0,0.0,82,0.00,,-RA,0.00,VWS V15.00,2014-08-29 10:11:00,
2014-08-29 06:16:00,73.3,67.5,30.09,ENE,64,0.0,0.0,82,0.00,,-RA,0.00,VWS V15.00,2014-08-29 10:16:00,
2014-08-29 06:22:00,73.3,67.5,30.09,NE,54,0.0,0.0,82,0.00,,-RA,0.00,VWS V15.00,2014-08-29 10:22:00,
2014-08-29 06:27:00,73.2,67.7,30.09,NE,51,0.0,0.0,83,0.00,,-RA,0.00,VWS V15.00,2014-08-29 10:27:00,
2014-08-29 06:32:00,73.2,67.7,30.10,NE,56,0.0,2.0,83,0.00,,-RA,0.00,VWS V15.00,2014-08-29 10:32:00,
2014-08-29 06:37:00,73.2,67.7,30.10,NE,56,0.0,2.0,83,0.00,,-RA,0.00,VWS V15.00,2014-08-29 10:37:00,
2014-08-29 06:42:00,73.2,67.7,30.10,ENE,58,0.0,2.0,83,0.00,,OVC070,0.00,VWS V15.00,2014-08-29 10:42:00,
2014-08-29 06:47:00,73.2,67.7,30.11,NE,56,0.0,2.0,83,0.00,,OVC070,0.00,VWS V15.00,2014-08-29 10:47:00,
2014-08-29 06:52:00,73.3,67.5,30.11,ENE,58,0.0,2.0,82,0.00,,OVC070,0.00,VWS V15.00,2014-08-29 10:52:00,
2014-08-29 06:57:00,73.3,67.5,30.11,NE,54,0.0,2.0,82,0.00,,OVC070,0.00,VWS V15.00,2014-08-29 10:57:00,
2014-08-29 07:02:00,73.5,67.7,30.11,North,4,0.0,0.0,82,0.00,,OVC070,0.00,VWS V15.00,2014-08-29 11:02:00,
2014-08-29 07:07:00,73.7,67.9,30.11,North,3,0.0,0.0,82,0.00,,OVC070,0.00,VWS V15.00,2014-08-29 11:07:00,
2014-08-29 07:13:00,73.7,67.5,30.11,North,6,0.0,0.0,81,0.00,,OVC070,0.00,VWS V15.00,2014-08-29 11:13:00,
2014-08-29 07:18:00,73.7,67.5,30.12,North,8,0.0,0.0,81,0.00,,OVC070,0.00,VWS V15.00,2014-08-29 11:18:00,
2014-08-29 07:23:00,73.7,67.2,30.12,NNE,28,0.0,0.0,80,0.00,,OVC070,0.00,VWS V15.00,2014-08-29 11:23:00,
2014-08-29 07:28:00,73.9,67.0,30.12,North,10,0.0,6.0,79,0.00,,OVC070,0.00,VWS V15.00,2014-08-29 11:28:00,
2014-08-29 07:33:00,73.9,67.0,30.12,North,0,0.0,6.0,79,0.00,,OVC070,0.00,VWS V15.00,2014-08-29 11:33:00,
2014-08-29 07:38:00,74.0,67.1,30.12,North,1,0.0,6.0,79,0.00,,OVC070,0.00,VWS V15.00,2014-08-29 11:38:00,
2014-08-29 07:43:00,74.0,67.1,30.12,North,1,0.0,6.0,79,0.00,,OVC090,0.00,VWS V15.00,2014-08-29 11:43:00,
2014-08-29 07:48:00,74.2,67.3,30.13,North,1,0.0,6.0,79,0.00,,OVC090,0.00,VWS V15.00,2014-08-29 11:48:00,
2014-08-29 07:53:00,74.2,66.9,30.13,North,0,0.0,6.0,78,0.00,,OVC090,0.00,VWS V15.00,2014-08-29 11:53:00,
2014-08-29 07:58:00,74.4,67.1,30.13,NE,40,0.0,6.0,78,0.00,,OVC090,0.00,VWS V15.00,2014-08-29 11:58:00,
2014-08-29 08:03:00,74.6,66.9,30.13,NE,37,0.0,0.0,77,0.00,,OVC090,0.00,VWS V15.00,2014-08-29 12:03:00,
2014-08-29 08:08:00,74.6,66.9,30.13,NE,45,0.0,0.0,77,0.00,,OVC090,0.00,VWS V15.00,2014-08-29 12:08:00,
2014-08-29 08:17:00,74.9,66.8,30.14,NE,45,0.0,0.0,76,0.00,,OVC090,0.00,VWS V15.00,2014-08-29 12:17:00,
2014-08-29 08:22:00,75.1,66.2,30.14,NE,52,0.0,4.0,74,0.00,,OVC090,0.00,VWS V15.00,2014-08-29 12:22:00,
2014-08-29 08:28:00,75.3,66.1,30.14,NNE,27,0.0,7.0,73,0.00,,OVC090,0.00,VWS V15.00,2014-08-29 12:28:00,
2014-08-29 08:33:00,75.4,66.2,30.14,NE,41,0.0,7.0,73,0.00,,OVC090,0.00,VWS V15.00,2014-08-29 12:33:00,
2014-08-29 08:38:00,75.6,65.9,30.14,ENE,58,0.0,7.0,72,0.00,,OVC090,0.00,VWS V15.00,2014-08-29 12:38:00,
2014-08-29 08:43:00,75.6,65.5,30.14,NE,35,0.0,0.0,71,0.00,,OVC090,0.00,VWS V15.00,2014-08-29 12:43:00,
2014-08-29 08:48:00,76.0,65.5,30.14,North,10,0.0,0.0,70,0.00,,OVC090,0.00,VWS V15.00,2014-08-29 12:48:00,
2014-08-29 08:53:00,76.0,65.1,30.14,ENE,65,0.0,8.0,69,0.00,,OVC090,0.00,VWS V15.00,2014-08-29 12:53:00,
2014-08-29 08:59:00,76.3,65.8,30.14,NNE,25,0.0,10.0,70,0.00,,OVC090,0.00,VWS V15.00,2014-08-29 12:59:00,
2014-08-29 09:04:00,76.5,64.7,30.14,ENE,62,2.0,13.0,67,0.00,,OVC090,0.00,VWS V15.00,2014-08-29 13:04:00,
2014-08-29 09:09:00,77.0,65.2,30.14,NE,42,0.0,13.0,67,0.00,,OVC090,0.00,VWS V15.00,2014-08-29 13:09:00,
2014-08-29 09:14:00,77.4,66.0,30.14,ENE,69,0.0,13.0,68,0.00,,OVC090,0.00,VWS V15.00,2014-08-29 13:14:00,
2014-08-29 09:19:00,77.6,66.6,30.15,NE,55,10.0,13.0,69,0.00,,OVC090,0.00,VWS V15.00,2014-08-29 13:19:00,
2014-08-29 09:24:00,77.6,66.2,30.15,ENE,76,0.0,13.0,68,0.00,,OVC090,0.00,VWS V15.00,2014-08-29 13:24:00,
2014-08-29 09:29:00,77.6,64.5,30.15,North,0,0.0,13.0,64,0.00,,OVC090,0.00,VWS V15.00,2014-08-29 13:29:00,
2014-08-29 09:34:00,77.9,64.8,30.15,NE,37,1.0,13.0,64,0.00,,OVC090,0.00,VWS V15.00,2014-08-29 13:34:00,
2014-08-29 09:40:00,78.1,64.9,30.15,SE,124,0.0,13.0,64,0.00,,OVC090,0.00,VWS V15.00,2014-08-29 13:40:00,
2014-08-29 09:45:00,78.1,64.9,30.15,North,3,2.0,13.0,64,0.00,,BKN090,0.00,VWS V15.00,2014-08-29 13:45:00,
2014-08-29 09:50:00,78.1,64.9,30.15,NNE,27,0.0,13.0,64,0.00,,BKN090,0.00,VWS V15.00,2014-08-29 13:50:00,
2014-08-29 09:55:00,78.6,64.5,30.15,NE,52,0.0,13.0,62,0.00,,BKN090,0.00,VWS V15.00,2014-08-29 13:55:00,
2014-08-29 10:00:00,78.8,64.2,30.15,NNE,20,2.0,13.0,61,0.00,,BKN090,0.00,VWS V15.00,2014-08-29 14:00:00,
2014-08-29 10:05:00,79.0,63.9,30.15,NE,40,7.0,8.0,60,0.00,,BKN090,0.00,VWS V15.00,2014-08-29 14:05:00,
2014-08-29 10:10:00,79.4,64.3,30.15,NE,38,0.0,8.0,60,0.00,,BKN090,0.00,VWS V15.00,2014-08-29 14:10:00,
2014-08-29 10:16:00,79.4,64.8,30.15,NE,37,0.0,8.0,61,0.00,,BKN090,0.00,VWS V15.00,2014-08-29 14:16:00,
2014-08-29 10:21:00,79.2,64.1,30.15,North,8,4.0,11.0,60,0.00,,BKN090,0.00,VWS V15.00,2014-08-29 14:21:00,
2014-08-29 10:26:00,78.8,64.7,30.15,NE,55,8.0,11.0,62,0.00,,BKN090,0.00,VWS V15.00,2014-08-29 14:26:00,
2014-08-29 10:31:00,78.8,64.2,30.16,North,356,7.0,13.0,61,0.00,,BKN090,0.00,VWS V15.00,2014-08-29 14:31:00,
2014-08-29 10:36:00,78.6,63.6,30.16,North,4,0.0,13.0,60,0.00,,BKN090,0.00,VWS V15.00,2014-08-29 14:36:00,
2014-08-29 10:41:00,78.8,63.8,30.16,North,6,8.0,13.0,60,0.00,,SCT050,0.00,VWS V15.00,2014-08-29 14:41:00,
2014-08-29 10:46:00,79.0,63.9,30.16,SSE,165,8.0,13.0,60,0.00,,SCT050,0.00,VWS V15.00,2014-08-29 14:46:00,
2014-08-29 10:51:00,79.0,63.9,30.16,North,352,1.0,13.0,60,0.00,,SCT050,0.00,VWS V15.00,2014-08-29 14:51:00,
2014-08-29 10:57:00,79.2,64.1,30.16,NE,35,2.0,13.0,60,0.00,,SCT050,0.00,VWS V15.00,2014-08-29 14:57:00,
2014-08-29 11:02:00,79.2,64.1,30.16,North,6,2.0,11.0,60,0.00,,SCT050,0.00,VWS V15.00,2014-08-29 15:02:00,
2014-08-29 11:07:00,79.6,64.5,30.16,NE,52,6.0,11.0,60,0.00,,SCT050,0.00,VWS V15.00,2014-08-29 15:07:00,
2014-08-29 11:12:00,79.0,63.9,30.16,NNE,13,6.0,11.0,60,0.00,,SCT050,0.00,VWS V15.00,2014-08-29 15:12:00,
2014-08-29 11:17:00,79.2,64.6,30.16,ENE,58,0.0,11.0,61,0.00,,SCT050,0.00,VWS V15.00,2014-08-29 15:17:00,
2014-08-29 11:22:00,79.4,63.8,30.16,NNE,30,0.0,11.0,59,0.00,,SCT050,0.00,VWS V15.00,2014-08-29 15:22:00,
2014-08-29 11:27:00,79.8,64.7,30.16,ENE,76,0.0,11.0,60,0.00,,SCT050,0.00,VWS V15.00,2014-08-29 15:27:00,
2014-08-29 11:33:00,79.8,65.2,30.16,NE,45,4.0,11.0,61,0.00,,SCT050,0.00,VWS V15.00,2014-08-29 15:33:00,
2014-08-29 11:38:00,79.9,65.3,30.16,NE,44,2.0,11.0,61,0.00,,SCT050,0.00,VWS V15.00,2014-08-29 15:38:00,
2014-08-29 11:43:00,80.1,65.0,30.16,ENE,71,6.0,11.0,60,0.00,,SCT200,0.00,VWS V15.00,2014-08-29 15:43:00,
2014-08-29 11:48:00,80.3,65.2,30.17,SW,233,0.0,11.0,60,0.00,,SCT200,0.00,VWS V15.00,2014-08-29 15:48:00,
2014-08-29 11:53:00,80.3,64.7,30.17,ENE,75,6.0,11.0,59,0.00,,SCT200,0.00,VWS V15.00,2014-08-29 15:53:00,
2014-08-29 11:58:00,80.1,65.0,30.17,ENE,64,6.0,17.0,60,0.00,,SCT200,0.00,VWS V15.00,2014-08-29 15:58:00,
2014-08-29 12:03:00,80.1,65.4,30.17,NNE,27,10.0,13.0,61,0.00,,SCT200,0.00,VWS V15.00,2014-08-29 16:03:00,
2014-08-29 12:09:00,79.8,64.2,30.17,SE,130,0.0,13.0,59,0.00,,SCT200,0.00,VWS V15.00,2014-08-29 16:09:00,
2014-08-29 12:14:00,80.1,64.5,30.17,ENE,64,0.0,13.0,59,0.00,,SCT200,0.00,VWS V15.00,2014-08-29 16:14:00,
2014-08-29 12:19:00,80.1,65.4,30.16,North,1,1.0,13.0,61,0.00,,SCT200,0.00,VWS V15.00,2014-08-29 16:19:00,
2014-08-29 12:24:00,79.8,63.7,30.16,ENE,58,2.0,15.0,58,0.00,,SCT200,0.00,VWS V15.00,2014-08-29 16:24:00,
2014-08-29 12:29:00,79.4,63.8,30.17,NE,41,0.0,15.0,59,0.00,,SCT200,0.00,VWS V15.00,2014-08-29 16:29:00,
2014-08-29 12:34:00,79.8,64.7,30.17,North,357,0.0,15.0,60,0.00,,SCT200,0.00,VWS V15.00,2014-08-29 16:34:00,
2014-08-29 12:40:00,79.6,63.5,30.17,North,359,7.0,15.0,58,0.00,,SCT200,0.00,VWS V15.00,2014-08-29 16:40:00,
2014-08-29 12:45:00,79.6,64.5,30.16,North,0,0.0,15.0,60,0.00,,SCT200,0.00,VWS V15.00,2014-08-29 16:45:00,
2014-08-29 12:50:00,79.6,65.0,30.16,North,4,9.0,15.0,61,0.00,,SCT200,0.00,VWS V15.00,2014-08-29 16:50:00,
2014-08-29 12:55:00,79.8,64.2,30.16,NNE,23,0.0,15.0,59,0.00,,SCT200,0.00,VWS V15.00,2014-08-29 16:55:00,
2014-08-29 13:00:00,79.8,64.2,30.16,ENE,58,0.0,15.0,59,0.00,,SCT200,0.00,VWS V15.00,2014-08-29 17:00:00,
2014-08-29 13:05:00,79.8,63.7,30.16,North,0,0.0,8.0,58,0.00,,SCT200,0.00,VWS V15.00,2014-08-29 17:05:00,
2014-08-29 13:10:00,79.9,63.3,30.16,North,356,0.0,8.0,57,0.00,,SCT200,0.00,VWS V15.00,2014-08-29 17:10:00,
2014-08-29 13:15:00,79.8,63.2,30.17,NE,56,0.0,9.0,57,0.00,,SCT200,0.00,VWS V15.00,2014-08-29 17:15:00,
2014-08-29 13:21:00,79.6,63.5,30.17,NNE,13,0.0,9.0,58,0.00,,SCT200,0.00,VWS V15.00,2014-08-29 17:21:00,
2014-08-29 13:26:00,79.9,64.3,30.17,NE,40,0.0,9.0,59,0.00,,SCT200,0.00,VWS V15.00,2014-08-29 17:26:00,
2014-08-29 13:31:00,80.5,63.9,30.16,NNE,18,0.0,9.0,57,0.00,,SCT200,0.00,VWS V15.00,2014-08-29 17:31:00,
2014-08-29 13:36:00,80.7,63.6,30.16,NNE,32,2.0,9.0,56,0.00,,SCT200,0.00,VWS V15.00,2014-08-29 17:36:00,
2014-08-29 13:41:00,80.7,63.6,30.16,NE,55,1.0,9.0,56,0.00,,SCT200,0.00,VWS V15.00,2014-08-29 17:41:00,
2014-08-29 13:46:00,81.1,64.4,30.16,NNE,20,8.0,13.0,57,0.00,,SCT200,0.00,VWS V15.00,2014-08-29 17:46:00,